Location: Newark
(48.5667°N, 3.3000°E)
Time: 13:32:32
(UTC+00:00)

N. Korean satellite - Pass Details

Date: 26 October 2019
Orbit: 456 x 506 km, 97.2° (Epoch: 18 November)

Event Time Altitude Azimuth Distance (km) Brightness Sun altitude
Rises 17:34:01 0° 197° (SSW) 2,472 10.5 -9.9°
Reaches altitude 10° 17:36:21 10° 212° (SSW) 1,609 9.8 -10.3°
Maximum altitude 17:39:07 23° 266° (W) 1,052 9.4 -10.7°
Drops below altitude 10° 17:41:58 10° 320° (NW) 1,639 9.7 -11.2°
Sets 17:44:22 0° 336° (NNW) 2,532 10.5 -11.6°
